sat.trackr.live / text

‹ back to catalog

STARLINK-31306

NORAD 58876 · 2024-020A

PAYLOAD ACTIVE UNKNOWN

§ Identity

Operator
Country
US
Launch date
2024-01-29
Launch site
AFWTR
Launch vehicle
Mass (kg)
RCS (m²)

Purposes: comms

External: N2YO · Heavens-Above · Gunter

§ Orbital elements

Epoch: 2026-05-24T18:37:08.651712Z

Period
94.11 min
Inclination
53.1608°
Eccentricity
0.0001257
Mean motion
15.30191013 rev/d
Perigee alt
474.4 km
Apogee alt
476.1 km
Semi-major
6,853.4 km
B*
1.1490e-4
RAAN
328.7696°
Arg perigee
80.8972°
Mean anomaly
279.2171°
Rev number
13,090

§ Raw data

STARLINK-313061 58876U 24020A   26144.77579458  .00003044  00000+0  11490-3 0  99992 58876  53.1608 328.7696 0001257  80.8972 279.2171 15.30191013130905

JSON: /api/v1/satellites/58876 · /tle

For live sub-satellite position, see the globe view (requires WebGL).

§ Visibility from observer

Set your observer location to see the next 7 days of passes ≥ 10°. The values pass through the URL so the page stays shareable.

No JS? Fill the form by hand. The geolocation button needs JavaScript.